Regional Weather Roundup
Issued by NWS

Home | Current Version | Previous Version | Graphics & Text | Print | Product List | Glossary On
Versions: 1 2 3 4 5 6 7 8 9 10 11 12 13 14 15 16 17 18 19 20 21 22 23 24 25 26 27
000
ASUS45 KBOI 301210
RWRID

IDAHO REGIONAL WEATHER ROUNDUP
NATIONAL WEATHER SERVICE BOISE ID
600 AM MDT MON MAY 30 2016

NOTE: "FAIR" INDICATES FEW OR NO CLOUDS BELOW 12000 FEET
WITH NO SIGNIFICANT WEATHER AND/OR OBSTRUCTIONS TO VISIBILITY

IDZ012-014-301300-
SOUTHWEST IDAHO


CITY           SKY/WX    TMP DP  RH WIND       PRES   REMARKS
BOISE          PTCLDY    53  36  52 W8        30.11R
CALDWELL       PTCLDY    52  39  61 W12       30.12R
MOUNTAIN HOME  CLEAR     56  41  57 NW14      30.09R
$$

IDZ016-017-301300-
SOUTHCENTRAL IDAHO


CITY           SKY/WX    TMP DP  RH WIND       PRES   REMARKS
BURLEY         PTCLDY    54  40  59 W13G22    30.07R
JEROME         CLEAR     49  40  71 SW7       30.09R
TWIN FALLS     CLEAR     50  38  63 SW14      30.11R
$$

IDZ019>023-301300-
SOUTHEAST IDAHO


CITY           SKY/WX    TMP DP  RH WIND       PRES   REMARKS
IDAHO FALLS    CLEAR     46  41  82 SW10      30.07R
POCATELLO      PTCLDY    47  42  83 CALM      30.08R
REXBURG        CLEAR     49  41  74 SW9       30.07R
$$

IDZ006-010-011-018-031-032-301300-
CENTRAL IDAHO MOUNTAINS


CITY           SKY/WX    TMP DP  RH WIND       PRES   REMARKS
MCCALL         CLEAR     37  33  85 CALM      30.14R
HAILEY         CLEAR     41  32  70 NW10      30.13S
STANLEY          N/A     30  25  81 CALM      30.18R
SALMON         PTCLDY    45  36  70 CALM      30.10R
CHALLIS        CLEAR     42  29  59 W3        30.11R
$$

IDZ002-004-006-007-026-301300-
NORTHERN IDAHO


CITY           SKY/WX    TMP DP  RH WIND       PRES   REMARKS
LEWISTON       CLEAR     54  37  52 W9        30.16R
LOWELL           N/A     52  49  89 CALM      30.16R
COEUR D`ALENE  CLEAR     43  36  75 CALM      30.14R
MULLAN PASS    CLEAR     34  32  92 N6        30.13R WCI  29
$$




USA.gov is the U.S. government's official web portal to all federal, state and local government web resources and services.